Wind_Speed
20 19 18 18 19 20 20 20 20 21 22 22 22 21 18 16 15 15 14 12 11 10 8 6 5 5 6 6 6 5 5 5 5 5 4 4 3 4 5 5 5 5 5 6 6 6 6 6 8 9 11 11 11 10 9 8 9 9 9 9 10 10 10 10 11 11 12 12 12
21 20 19 18 20 20 20 20 19 20 22 24 25 25 24 21 18 16 13 10 9 7 6 6 6 6 6 6 6 5 4 3 3 3 3 3 3 3 3 4 4 4 4 4 5 5 5 5 6 7 9 10 11 11 10 10 10 10 10 10 10 10 10 10 11 11 12 12 13
22 20 17 16 18 20 21 21 21 20 21 24 26 26 24 21 19 17 15 13 13 11 10 9 9 8 8 7 7 7 6 4 3 3 2 2 2 2 2 2 3 3 3 4 4 4 5 5 5 5 7 8 9 9 9 8 9 9 10 10 10 9 9 9 10 10 11 11 12
24 23 21 19 18 20 21 21 20 19 17 17 16 16 16 16 16 16 16 16 15 14 13 11 10 9 9 8 8 7 7 6 5 4 3 2 2 2 2 2 3 3 3 3 3 4 4 5 5 5 6 7 7 8 8 8 8 8 8 9 9 9 9 9 9 10 10 11 11
25 25 24 24 23 23 22 21 20 18 15 13 11 11 11 11 11 12 12 12 12 12 12 11 9 8 7 7 6 5 5 5 4 4 3 3 3 2 3 3 3 3 3 4 4 4 5 5 6 6 6 7 7 8 8 8 8 8 8 8 8 8 9 9 10 10 10 10 10
25 25 25 26 25 24 23 22 20 17 15 13 13 12 11 9 8 8 8 9 9 10 10 10 8 7 6 5 5 4 4 3 3 3 3 3 3 3 4 4 4 5 5 5 5 6 6 6 7 7 7 7 8 8 8 8 8 8 8 8 8 9 10 10 10 10 10 10 11
25 25 25 26 25 25 23 22 20 18 16 15 16 16 15 13 11 10 9 9 9 9 10 10 9 8 7 6 5 5 4 4 3 3 3 3 4 4 5 5 6 6 6 7 7 7 8 8 8 8 8 8 9 9 9 9 9 9 9 9 9 9 9 10 11 11 11 11 11
26 26 26 26 26 26 25 24 22 20 20 20 20 20 19 17 15 13 12 11 10 10 10 10 9 9 8 7 6 5 4 4 3 3 3 4 5 6 6 7 7 7 7 7 8 8 8 9 9 9 9 9 9 9 9 9 10 10 10 10 10 9 9 9 10 11 11 11 12
26 26 26 26 27 28 29 29 27 26 25 25 25 25 23 20 19 17 16 13 12 11 10 10 9 9 9 8 7 6 5 4 4 3 4 5 6 7 7 7 7 7 7 7 7 8 8 9 9 9 10 10 10 10 11 11 11 11 11 11 10 10 10 9 9 9 10 10 11
26 26 26 26 27 28 29 30 30 29 29 30 31 31 29 26 24 22 20 16 14 12 11 10 9 9 8 8 7 6 6 5 4 4 5 6 6 6 6 6 6 6 6 6 6 7 7 8 9 9 10 10 11 11 11 11 11 12 12 11 11 11 11 11 10 10 10 10 11
26 25 24 25 25 25 25 26 28 28 29 30 33 34 33 31 28 26 24 19 16 12 11 10 9 9 8 7 7 6 6 5 4 4 4 4 4 4 4 4 4 5 5 5 6 6 6 7 8 9 9 10 10 11 11 11 12 12 12 12 12 11 11 12 12 12 12 11 11
25 23 22 23 23 22 19 19 22 24 26 27 29 31 32 31 31 29 26 21 17 13 11 10 10 9 8 7 7 6 5 4 4 3 3 2 2 3 3 3 4 4 5 5 5 5 6 6 7 8 8 9 9 9 10 10 11 11 11 12 12 12 12 12 13 13 13 13 13
24 22 20 20 20 18 16 14 15 17 19 21 23 25 26 27 28 27 24 20 17 13 10 10 9 9 8 7 6 6 5 3 3 2 1 1 1 2 2 3 3 4 4 5 5 5 5 6 6 7 7 8 8 8 8 9 9 10 10 10 10 11 12 13 13 13 13 13 13
23 21 19 18 18 17 15 13 12 13 13 14 14 16 17 18 20 20 20 17 14 10 9 8 8 8 8 7 6 5 5 4 3 2 1 1 1 1 2 3 3 4 4 5 5 5 5 5 6 6 7 7 7 7 7 8 8 8 9 9 10 10 11 12 12 12 12 12 11
22 20 18 17 18 18 17 15 13 11 10 8 8 8 9 11 12 12 12 11 9 8 7 6 6 7 8 7 7 6 5 5 4 3 2 1 0 1 2 3 3 4 5 5 5 5 5 5 5 5 5 5 6 6 6 6 6 7 7 8 8 8 8 9 9 9 10 10 9
21 18 16 15 16 16 16 15 12 10 9 7 6 5 5 5 6 7 7 7 6 6 6 6 6 7 7 7 7 6 5 5 4 4 3 2 1 2 2 3 4 4 5 5 5 4 4 3 3 2 3 3 4 4 4 4 4 4 4 4 4 5 5 5 5 6 6 7 7
19 17 15 13 13 13 13 12 10 8 7 7 7 5 4 3 3 4 5 5 4 5 5 6 6 7 7 7 6 5 5 5 4 4 3 3 3 2 3 3 3 4 4 4 3 1 0 1 1 2 3 3 3 4 3 2 2 3 4 5 5 6 6 7 6 6 5 4 5
18 17 16 15 13 12 10 9 7 5 4 5 6 6 5 4 4 4 4 4 4 5 6 6 6 7 7 6 6 6 5 5 5 5 5 4 3 2 2 2 3 3 3 3 3 4 5 4 4 4 4 4 4 5 5 6 6 6 6 7 6 7 7 7 6 6 5 3 4
16 16 15 15 15 13 11 9 6 4 2 2 3 4 5 5 5 4 4 4 5 5 6 6 7 7 7 7 7 6 6 6 6 6 6 4 3 2 2 3 3 3 4 5 6 6 6 6 6 6 6 6 6 6 7 7 8 7 6 6 6 6 7 7 7 7 6 5 6
14 14 13 13 13 13 13 11 10 8 5 4 2 1 1 3 4 4 4 4 5 6 7 7 8 8 8 8 8 7 7 7 7 7 6 5 4 4 4 4 3 3 3 5 6 7 7 7 8 8 8 7 7 7 7 7 7 7 6 6 6 7 7 8 8 8 8 8 8
14 13 12 12 11 11 11 11 11 10 9 7 6 5 3 1 1 2 3 4 6 7 7 8 8 9 9 8 8 8 8 8 8 7 6 6 5 4 4 4 4 3 4 5 6 7 8 8 8 8 9 8 8 7 7 7 7 7 7 6 7 7 8 9 9 10 10 10 10
14 13 12 12 12 11 11 11 10 10 9 9 8 7 5 4 3 1 2 4 5 6 7 8 9 9 9 9 9 9 9 9 8 8 7 6 4 3 3 4 5 6 6 6 6 7 7 7 7 8 8 8 8 8 7 7 7 7 7 7 8 8 9 9 10 10 10 10 11
14 13 13 13 12 12 11 11 10 10 10 9 9 8 7 6 4 3 3 3 4 4 5 7 8 9 9 9 9 9 9 9 9 8 7 5 4 4 5 6 7 8 8 7 7 6 7 7 6 6 6 7 7 7 7 7 7 7 7 7 8 9 9 10 10 10 10 10 10
14 14 13 13 13 12 12 12 11 11 11 10 10 9 8 6 5 4 4 3 3 2 3 5 7 8 9 10 10 10 10 10 9 9 8 6 5 6 8 9 9 8 8 8 7 7 7 7 7 7 7 7 7 7 7 7 7 7 7 7 7 8 9 10 10 11 10 10 9
14 14 13 13 13 13 13 13 13 12 12 11 10 9 9 7 6 5 4 3 2 1 1 3 5 7 9 10 10 10 10 10 10 10 9 8 8 9 10 11 10 10 9 9 9 9 8 8 8 8 8 8 8 8 8 7 7 7 7 7 7 7 8 9 9 10 10 10 10
14 14 14 13 13 13 14 14 13 13 13 12 11 10 10 9 7 5 4 3 2 1 1 3 6 8 10 11 11 11 11 11 11 11 10 10 10 11 12 12 11 11 11 11 11 11 11 11 10 10 10 10 9 9 9 8 8 7 7 7 7 7 7 8 8 8 8 8 8
15 15 14 14 14 14 14 14 14 14 13 13 12 11 10 9 8 6 4 3 2 1 2 4 7 9 10 11 11 11 11 11 12 12 12 12 12 12 12 13 13 13 13 13 13 13 13 12 12 11 11 10 9 8 8 7 7 7 7 8 8 8 8 8 8 8 8 7 7
15 15 15 15 15 15 15 15 14 14 14 14 13 12 11 10 9 8 6 5 5 4 4 6 8 10 10 10 10 11 12 12 13 13 13 14 13 13 14 14 14 14 13 13 13 13 13 13 12 11 11 9 8 7 6 5 5 6 6 7 7 7 8 8 8 8 8 8 7
16 15 15 15 16 16 16 15 15 15 14 14 14 13 12 11 10 8 8 8 8 7 7 7 9 10 11 10 11 12 13 15 15 16 16 16 16 15 15 15 15 15 14 13 13 13 12 12 12 11 9 8 7 6 5 5 5 5 6 6 7 7 7 7 7 8 8 7 7
15 15 15 15 15 16 16 15 15 14 15 15 14 14 13 11 10 9 9 9 9 10 9 9 10 11 11 11 11 13 15 16 17 18 18 18 18 17 15 15 15 14 13 13 12 12 12 12 11 10 9 8 6 5 5 5 5 5 5 6 6 6 6 6 7 7 7 7 6
15 15 15 15 15 16 16 15 15 14 14 15 15 15 13 12 10 10 10 11 10 11 11 12 12 12 12 11 11 11 13 14 16 17 18 18 18 17 16 15 14 13 13 12 12 11 11 11 10 10 9 8 6 5 5 4 4 5 5 5 5 6 6 6 6 6 6 6 5
14 14 15 15 15 16 16 16 15 14 14 15 15 15 14 12 10 10 11 11 11 11 12 12 13 13 12 12 11 11 12 12 14 14 15 16 17 17 17 16 14 13 12 11 11 10 10 9 9 9 8 7 6 5 5 4 4 4 5 5 5 5 5 5 5 5 6 5 5
15 14 15 15 16 17 17 17 16 15 14 14 14 14 14 12 10 10 10 10 10 11 11 11 12 12 12 13 13 12 12 12 12 12 12 13 13 14 14 14 14 12 11 10 9 8 8 7 7 8 7 7 6 5 5 4 4 4 4 5 5 5 5 5 5 5 5 5 5
16 15 15 16 17 17 18 18 17 15 14 14 13 13 13 12 10 9 9 9 9 9 9 10 10 10 10 11 12 12 12 11 12 12 12 12 11 12 12 11 11 11 11 10 8 7 6 6 6 6 6 6 5 5 5 5 4 4 4 4 5 5 5 5 5 5 5 5 6
17 17 16 16 16 17 18 18 17 16 15 14 13 12 11 10 9 8 8 8 8 8 8 8 9 9 9 10 11 11 11 11 11 11 11 11 11 11 11 10 10 11 10 10 8 7 6 5 5 5 5 5 5 5 5 5 4 4 4 4 4 5 5 5 5 5 5 6 6
17 17 16 16 16 16 17 17 17 17 16 16 14 12 10 9 7 7 7 7 7 7 8 8 8 9 9 10 10 10 10 11 11 11 11 10 10 10 9 9 10 10 10 10 9 8 6 5 5 5 5 5 5 5 5 5 4 4 4 4 4 4 5 5 5 5 6 6 7
16 16 16 15 15 15 16 16 17 17 17 17 16 14 12 10 9 9 8 7 6 7 7 8 8 9 9 9 10 10 10 10 10 10 10 10 10 9 9 9 9 10 11 11 10 8 7 5 5 5 5 6 6 6 5 5 4 4 4 4 4 4 4 4 4 5 6 6 7
16 16 16 15 14 14 15 15 16 16 17 18 18 17 14 12 11 10 10 9 7 7 7 8 8 8 9 9 9 9 10 10 10 10 10 10 10 10 9 9 10 10 10 10 10 9 7 6 5 5 6 6 6 5 5 5 4 4 4 4 4 4 4 4 4 5 6 7 7
16 16 16 15 14 14 13 14 14 15 16 17 18 17 15 13 11 11 11 10 9 8 8 8 8 8 7 8 8 8 9 9 10 10 10 9 10 10 10 10 10 10 10 10 9 8 7 6 6 5 5 5 5 5 5 5 5 5 5 5 4 4 4 4 4 5 5 6 7
15 15 15 16 15 14 13 13 13 13 13 14 16 16 15 13 11 10 10 10 9 8 7 7 6 6 6 6 6 7 8 8 9 8 8 8 8 9 9 10 10 9 9 9 8 7 7 6 5 4 4 4 4 5 5 5 5 6 6 5 5 4 4 4 4 4 5 5 6
14 15 15 15 15 15 14 13 13 13 12 13 13 14 14 12 10 9 9 8 7 6 5 4 4 4 5 5 6 6 7 7 7 7 7 7 7 8 9 9 9 9 8 8 7 7 6 6 5 3 3 4 4 5 5 6 6 6 6 5 5 4 4 4 4 4 4 5 5
Wind_Direction
303 297 291 287 287 289 290 289 288 283 277 271 270 269 264 254 252 252 251 249 244 238 231 218 203 188 182 186 187 192 196 199 206 212 216 222 229 238 245 251 256 257 257 255 252 251 248 246 248 249 249 248 245 245 245 246 247 248 249 250 251 252 253 254 254 254 254 254 253
299 295 289 282 278 279 283 286 287 286 281 276 275 273 269 260 251 245 240 231 221 211 198 187 178 174 176 182 182 180 178 180 190 200 208 215 222 231 241 249 254 257 258 259 259 259 255 252 250 253 255 256 255 254 253 252 252 251 251 251 251 253 254 254 254 254 254 254 253
295 291 287 280 273 271 272 276 281 283 282 278 273 268 262 250 238 228 223 218 214 210 204 200 196 192 189 189 189 185 180 175 173 178 192 205 209 212 223 236 248 255 258 262 263 265 264 261 256 254 256 259 260 258 256 254 252 251 250 249 250 250 251 252 253 254 254 254 253
293 289 283 277 270 267 267 269 273 277 279 277 269 261 252 242 231 223 220 219 218 216 214 210 208 206 203 202 201 200 200 198 195 193 196 206 208 212 222 239 249 256 261 265 268 270 272 271 265 261 259 260 260 259 258 257 252 248 247 247 248 248 247 249 251 253 254 254 253
293 288 283 276 269 263 261 263 267 272 279 283 279 269 261 253 242 232 226 222 219 217 213 209 203 202 204 203 201 202 205 210 212 212 213 223 231 237 247 255 261 265 269 271 273 276 277 277 274 267 263 262 261 261 261 262 259 254 249 247 247 247 246 248 250 251 253 253 252
291 288 283 278 271 264 258 255 256 263 273 285 291 289 283 278 269 256 242 230 219 211 205 198 191 186 187 188 188 187 191 200 210 215 222 237 247 257 263 268 272 274 275 277 277 278 278 278 274 270 266 264 263 263 263 264 262 259 254 251 249 249 249 249 250 251 251 251 250
289 286 282 278 272 265 258 251 248 250 259 271 281 286 288 289 288 275 257 237 219 206 200 195 190 187 186 185 185 186 189 195 204 218 235 252 263 270 275 277 278 280 280 280 280 280 278 276 273 270 267 265 265 265 264 264 262 260 257 254 253 251 249 249 250 250 250 249 249
289 285 281 277 271 264 258 251 246 244 247 255 263 270 275 282 285 280 267 248 228 213 205 202 197 194 192 190 190 191 196 203 216 234 251 263 270 275 278 280 281 282 282 282 282 281 279 276 273 270 268 267 267 266 265 265 263 262 259 258 258 255 251 249 249 248 247 247 247
290 286 283 279 272 265 258 253 248 245 243 245 250 255 260 267 272 274 271 261 243 229 219 210 206 203 201 199 199 203 209 218 230 245 258 266 271 276 280 283 284 285 286 285 284 283 280 277 272 270 268 268 267 267 267 266 265 264 263 261 261 259 255 250 248 246 245 246 246
293 288 286 283 277 269 261 254 250 246 242 241 243 247 250 254 259 264 267 266 254 240 227 215 209 205 204 203 205 211 219 226 235 248 259 267 274 279 284 287 289 290 290 290 288 286 282 278 273 270 269 269 269 269 268 268 267 266 265 263 263 263 261 258 255 252 250 249 248
297 292 288 286 283 277 266 256 251 248 244 241 241 242 244 246 250 254 258 260 254 242 227 214 204 198 197 199 205 212 220 227 235 245 256 267 276 284 289 292 295 295 296 295 294 290 284 279 274 273 272 271 271 270 269 267 266 265 264 264 264 265 265 264 261 259 257 255 253
301 295 291 288 287 284 276 261 253 249 245 241 239 237 237 238 240 243 246 247 242 233 222 211 200 193 191 195 201 208 214 217 225 235 249 270 282 290 295 297 299 300 299 298 297 292 286 281 278 277 276 276 274 271 269 266 264 263 263 263 264 265 265 265 264 262 261 260 258
305 299 294 290 287 286 281 268 255 249 244 240 236 232 229 227 228 230 231 230 227 221 213 206 197 191 188 189 191 192 190 187 191 199 216 261 287 296 300 304 304 304 303 300 298 294 290 286 286 285 284 281 278 275 273 271 269 267 266 266 266 265 264 263 262 260 260 261 261
309 303 297 290 285 280 273 263 252 245 240 236 230 223 217 212 211 213 214 215 211 204 197 192 187 181 177 174 170 164 157 151 145 143 151 183 252 294 306 312 313 311 309 308 305 300 294 290 289 287 286 285 284 282 282 280 279 279 277 276 274 271 269 266 263 260 258 259 262
316 310 301 291 282 274 265 255 242 232 225 221 214 205 197 193 191 193 195 196 193 185 177 170 167 166 162 155 146 139 135 134 135 141 147 155 153 338 332 329 328 324 322 318 314 307 298 292 287 287 290 292 293 291 291 289 289 289 288 285 284 284 284 281 274 268 263 260 261
328 322 311 297 286 276 266 255 239 224 212 202 192 186 181 178 173 172 174 175 173 165 156 150 147 146 142 137 131 129 132 134 137 138 131 106 55 18 358 349 344 339 335 328 321 305 291 291 284 298 317 318 311 306 301 298 301 308 315 318 314 323 333 332 313 302 292 274 270
337 335 328 315 300 287 275 263 248 229 207 189 180 178 177 165 152 150 152 154 151 144 139 135 131 128 126 126 128 132 134 133 132 124 107 82 54 27 13 5 0 356 350 341 338 329 283 43 45 30 21 11 358 353 355 6 22 33 35 32 30 28 27 22 11 359 344 312 308
338 340 341 337 329 316 302 287 273 252 212 183 173 174 175 161 143 136 135 134 132 130 128 126 124 124 126 129 131 131 129 126 118 106 93 78 63 48 38 34 24 21 27 40 61 78 82 72 65 63 64 60 49 43 45 53 56 56 53 48 47 46 45 44 37 31 24 8 3
340 343 347 349 349 347 343 335 328 321 294 206 184 177 172 167 156 145 140 140 138 135 132 130 129 130 132 131 129 129 126 120 105 94 89 87 84 80 75 69 61 62 69 73 77 78 76 71 72 74 77 81 73 63 59 58 57 57 56 50 51 55 59 61 61 60 58 53 46
343 347 350 353 355 358 1 2 2 1 359 355 354 30 149 164 160 157 157 160 157 153 148 143 140 138 136 134 132 129 123 112 100 94 97 104 102 95 90 87 87 96 99 91 87 83 79 76 75 75 77 77 73 67 62 58 57 57 57 56 57 61 66 69 70 70 69 67 65
345 349 352 356 359 2 5 6 7 7 7 5 3 3 7 23 150 169 175 175 171 165 159 153 147 143 140 137 132 125 116 106 102 104 110 115 113 106 99 97 98 103 105 101 98 94 90 86 81 78 75 72 69 66 64 64 63 61 59 58 60 64 68 70 72 71 71 70 70
347 350 354 360 4 7 8 9 10 10 10 8 4 1 357 352 342 300 221 198 187 178 167 157 149 143 139 134 127 120 113 109 110 114 118 121 123 124 117 108 98 93 90 88 91 94 94 92 90 86 81 75 71 68 67 70 69 66 62 59 58 59 63 66 68 68 68 68 69
350 353 357 3 7 9 11 12 13 14 14 12 8 4 360 354 344 324 286 243 215 193 173 157 147 139 133 128 123 116 112 112 116 122 126 130 128 122 113 105 95 89 85 81 81 86 89 89 90 93 92 88 84 77 72 73 70 66 63 61 57 54 54 56 58 58 58 59 60
354 357 1 5 9 11 13 14 15 16 16 15 12 9 5 360 350 333 310 286 260 222 172 148 138 131 125 121 115 110 107 108 115 122 129 133 124 110 105 104 98 91 84 80 80 85 90 90 90 92 94 95 94 90 85 82 78 74 68 63 59 56 52 50 49 48 46 44 44
0 3 6 9 12 14 15 16 15 15 15 15 15 14 12 7 358 343 325 306 292 267 160 130 119 113 110 108 105 104 103 103 106 110 115 121 115 105 100 99 97 94 90 85 83 84 88 90 90 89 89 88 87 86 84 81 79 77 73 68 63 59 55 52 50 46 42 38 33
6 8 10 13 15 17 18 16 15 14 14 14 16 17 16 10 1 348 331 314 300 283 114 100 97 95 93 92 92 93 94 94 95 96 97 99 98 97 98 98 96 94 92 88 84 81 80 82 83 83 82 80 77 74 72 69 68 67 67 67 64 61 57 53 49 46 45 42 36
10 12 14 17 19 19 18 16 14 13 14 15 17 19 18 15 8 1 354 349 351 22 71 82 85 85 84 84 84 85 86 86 86 86 87 88 90 95 99 99 97 94 91 88 84 81 78 77 77 77 77 75 72 69 66 63 61 59 60 59 58 57 56 54 51 46 42 41 40
12 14 17 19 20 19 17 15 13 12 13 15 18 22 23 22 20 19 19 20 18 25 47 71 80 82 83 85 86 89 89 87 85 84 84 85 87 91 96 97 96 94 91 87 83 80 77 76 75 74 75 74 73 71 67 63 58 54 52 52 52 51 51 50 50 48 43 38 36
13 15 17 18 18 17 16 13 12 12 13 15 19 23 26 27 28 31 35 34 26 24 33 58 77 84 86 89 91 93 92 89 87 85 84 82 82 84 89 93 94 92 89 86 82 79 76 74 72 72 72 73 73 73 69 63 57 52 49 48 46 45 45 46 44 42 40 36 33
13 15 17 18 17 15 12 10 10 12 13 14 18 21 23 26 32 41 47 44 36 33 40 58 75 83 86 87 87 84 82 81 82 81 80 78 77 77 81 88 91 91 88 84 81 77 74 71 69 68 68 68 69 69 65 61 58 54 50 46 43 41 39 39 39 37 35 33 31
11 13 16 19 17 14 9 7 9 13 15 15 16 17 18 22 34 48 54 52 48 49 56 66 74 79 82 82 80 77 74 73 74 75 75 74 72 71 73 77 82 85 86 84 80 75 70 67 64 62 60 60 61 61 59 57 55 54 52 49 44 39 36 34 33 31 29 27 27
9 13 18 20 19 13 7 5 8 14 17 15 13 12 13 17 33 50 57 57 54 56 61 67 72 77 79 79 76 74 72 71 70 71 72 72 70 68 66 66 68 72 77 80 78 72 66 60 54 50 47 46 47 47 47 47 47 48 48 47 43 39 34 30 27 24 22 19 20
9 14 20 22 19 13 7 4 9 14 16 14 10 8 7 12 29 48 58 59 58 58 60 63 67 72 75 75 74 72 71 71 72 72 72 71 70 67 63 59 56 55 59 65 67 64 58 51 43 36 32 28 27 26 25 26 30 34 36 37 36 34 31 28 24 21 17 14 15
12 16 21 22 18 12 7 6 9 13 13 10 8 6 5 7 22 42 57 63 65 66 66 65 67 70 73 74 75 74 72 72 71 71 71 72 72 69 65 59 53 46 44 47 48 45 43 44 41 34 26 18 15 12 8 7 11 18 24 27 30 29 27 25 24 23 20 17 16
16 18 19 19 17 13 9 8 10 10 9 8 8 6 5 5 16 36 54 66 73 75 76 74 74 75 76 77 77 77 76 74 71 69 68 68 68 68 66 62 54 46 39 37 35 34 34 40 46 42 30 19 13 7 2 358 359 6 15 19 24 27 28 26 27 27 27 25 21
17 16 15 15 15 13 11 10 10 8 6 6 9 10 10 9 17 34 50 62 72 79 80 79 78 77 76 75 75 75 74 73 70 67 63 60 59 60 60 58 52 44 37 31 28 27 28 32 45 43 30 17 10 5 1 357 357 3 10 16 21 25 28 31 34 35 34 32 28
14 13 11 10 11 13 14 13 11 8 6 6 9 13 18 21 27 33 40 45 57 71 78 77 76 75 73 72 71 70 68 66 63 59 55 50 46 45 45 45 42 38 32 26 21 17 17 22 31 28 19 11 6 3 1 359 2 7 13 16 22 28 32 37 40 42 42 40 36
10 10 8 7 8 11 14 14 12 10 8 8 9 13 19 24 30 33 34 34 44 60 71 74 73 72 71 71 70 67 64 61 57 53 48 42 36 32 30 30 30 28 24 20 17 12 6 4 9 12 11 7 4 3 3 5 9 15 18 19 22 28 35 41 43 46 48 49 49
9 8 6 5 5 8 12 14 14 12 10 9 9 11 15 21 29 35 38 39 43 51 62 68 69 69 68 67 66 63 61 57 53 49 45 39 33 28 24 21 19 18 17 15 14 11 7 2 2 7 10 7 5 6 9 13 17 19 20 19 19 24 34 41 44 48 53 57 60
10 9 8 6 6 7 9 12 13 12 11 10 9 9 11 18 27 36 41 43 41 44 51 58 62 62 59 57 57 58 57 54 49 45 40 36 31 28 25 20 14 11 11 12 12 11 8 4 1 8 18 19 15 16 19 22 24 23 19 15 14 20 30 38 44 49 56 62 67
12 12 11 10 8 7 8 9 10 9 8 9 9 8 10 15 23 31 34 34 29 27 30 40 46 45 41 40 43 49 51 48 43 39 33 29 27 27 25 20 13 7 7 11 12 11 8 2 357 18 55 48 37 30 29 31 29 24 17 11 11 17 25 34 41 48 56 63 69
Height
738 737 736 737 738 739 739 739 738 737 737 736 735 734 733 732 732 732 731 731 731 731 731 731 731 732 732 733 733 734 735 735 735 735 736 736 737 737 738 738 739 739 740 740 740 740 740 740 740 740 740 740 740 740 740 740 741 741 741 742 742 742 743 743 743 743 744 744 744
738 736 735 736 737 738 738 738 738 737 736 735 735 735 734 733 732 731 731 730 730 730 730 730 730 731 731 732 733 733 734 734 735 735 735 736 736 737 737 738 738 739 739 739 739 739 739 739 739 739 739 739 739 740 740 740 740 740 740 741 741 741 741 742 742 742 743 743 743
738 736 735 735 735 736 737 737 737 736 736 735 735 735 734 732 731 730 730 729 729 729 729 729 730 730 730 731 731 732 733 733 734 735 735 735 736 736 737 737 738 738 738 738 738 739 739 739 739 739 739 739 739 739 739 739 739 740 740 740 740 740 741 741 741 741 742 742 742
737 736 735 734 733 734 735 735 735 735 735 735 734 734 733 731 730 728 728 728 728 728 728 728 729 729 729 729 730 730 731 732 733 734 735 735 735 736 736 737 737 737 737 737 738 738 738 738 738 738 738 738 738 739 739 739 739 739 739 739 739 740 740 740 740 740 741 741 741
736 735 734 733 732 732 732 733 734 734 734 734 734 733 732 731 730 728 728 727 727 727 727 728 728 728 728 729 729 730 730 731 732 733 734 735 735 735 736 736 736 736 736 737 737 737 737 737 737 737 737 738 738 738 738 738 738 738 738 738 738 739 739 739 739 740 740 740 740
735 734 733 732 731 730 730 730 731 732 732 733 733 733 732 731 730 729 729 729 728 727 726 727 727 727 728 728 729 729 730 730 731 732 733 734 734 735 735 735 735 735 735 736 736 736 736 736 736 737 737 737 737 737 737 737 737 737 737 737 737 738 738 738 738 739 739 739 739
733 732 731 731 730 729 728 728 728 728 730 731 732 732 732 731 730 730 730 730 728 727 726 725 726 726 727 727 728 729 729 730 730 731 732 733 733 734 734 734 735 735 735 735 735 735 735 735 735 736 736 736 736 736 736 736 737 737 737 737 737 737 737 737 737 737 738 738 738
731 730 730 729 728 728 727 726 725 725 726 729 730 731 731 731 731 732 731 731 729 727 725 724 724 725 725 726 727 728 728 729 730 730 731 732 732 733 733 733 733 733 734 733 734 734 734 734 735 735 735 735 735 735 735 735 736 736 736 736 736 736 736 736 736 736 737 737 737
730 729 728 727 726 725 725 724 723 723 723 725 727 729 730 730 731 732 732 731 729 727 725 724 723 724 724 725 726 727 727 728 729 730 730 730 731 732 732 732 732 732 732 732 732 733 733 733 733 734 734 734 734 734 734 735 735 735 735 735 735 735 735 735 735 735 736 736 736
728 727 726 725 724 723 723 722 721 721 721 722 724 726 727 729 730 731 731 731 729 727 725 723 722 723 723 724 725 726 726 727 728 728 729 730 730 731 731 731 731 731 731 731 731 732 732 732 732 733 733 733 733 733 733 734 734 734 734 734 734 734 735 735 735 735 735 735 735
727 726 725 724 723 722 721 720 720 720 720 720 721 722 724 726 728 730 730 730 729 728 725 723 722 722 722 723 724 725 725 726 726 727 728 729 730 730 730 730 730 731 731 731 731 731 731 731 731 732 732 732 732 732 732 733 733 733 733 733 733 734 734 734 734 734 734 734 734
726 725 724 724 723 722 720 719 719 719 719 719 719 720 720 722 725 727 729 730 729 727 725 723 722 721 721 723 723 724 724 725 725 727 728 729 729 730 730 730 730 730 730 730 730 730 730 730 731 731 731 731 731 731 732 732 732 732 732 732 732 733 733 733 733 733 733 733 734
726 725 724 723 723 722 721 720 719 719 719 719 718 718 718 719 721 725 727 727 727 726 725 723 721 720 720 722 722 723 723 724 725 726 727 728 729 729 729 730 730 730 730 730 730 730 730 730 730 730 731 731 731 731 731 731 731 731 731 731 732 732 732 732 732 732 733 733 733
725 724 724 723 723 722 721 720 720 719 719 719 718 717 717 718 720 722 724 725 725 724 723 722 720 720 720 721 722 722 723 724 725 726 727 728 729 729 729 729 729 730 730 729 729 729 729 730 730 730 730 730 730 730 730 730 731 731 731 731 731 731 731 731 731 731 731 732 732
726 725 724 723 722 722 721 720 720 719 719 719 718 718 718 718 719 720 721 722 722 722 721 720 720 719 720 720 721 722 723 724 725 726 727 727 728 728 729 729 729 729 729 729 729 729 729 729 729 730 730 730 730 730 730 730 730 730 730 730 730 730 730 730 730 730 730 731 731
727 725 724 723 723 722 721 721 720 719 719 718 718 718 719 718 718 718 719 720 720 720 720 720 719 719 719 720 721 722 723 723 724 725 726 727 727 728 728 729 729 729 729 728 728 728 729 729 729 729 730 730 730 730 730 730 731 731 731 730 730 730 730 730 730 730 730 730 730
728 727 725 724 723 723 722 721 720 720 719 718 718 718 719 718 718 718 718 719 719 719 719 719 719 719 719 720 721 722 722 723 724 725 725 725 726 727 728 729 729 729 728 728 728 728 728 729 729 729 730 730 730 730 731 731 731 731 731 731 731 730 730 730 730 730 730 730 730
730 728 727 725 725 724 723 722 721 720 720 718 718 718 718 718 718 718 718 718 718 718 719 719 719 719 720 720 721 722 722 723 723 724 724 725 726 727 728 728 728 728 728 728 728 728 729 729 729 729 730 730 730 731 731 731 731 731 731 731 731 731 730 730 730 730 730 730 730
731 730 728 727 725 725 724 723 722 721 721 720 719 719 718 718 718 718 718 718 718 718 719 719 719 720 720 720 721 721 722 722 722 722 723 725 726 727 728 728 728 728 728 728 729 729 729 729 729 729 729 730 730 731 731 731 731 731 732 732 732 731 731 730 730 730 730 730 730
732 730 729 728 726 725 724 724 723 722 722 721 720 720 719 719 718 718 718 719 719 719 719 719 719 719 720 720 721 721 721 721 721 722 723 725 726 727 727 728 728 728 728 728 729 729 730 730 730 730 730 730 731 731 732 732 732 732 732 733 732 732 731 731 730 730 730 730 730
733 732 730 729 727 726 725 724 723 723 722 721 721 720 720 720 719 719 719 719 719 719 719 719 719 719 720 720 720 720 720 720 721 722 724 725 726 727 727 728 728 728 728 728 729 729 730 730 730 730 730 731 731 732 732 733 733 733 733 733 733 732 731 731 730 730 730 730 730
735 733 731 730 728 727 726 725 724 723 723 722 721 721 720 720 720 720 720 720 720 720 720 719 719 719 719 720 720 720 720 720 721 722 724 725 726 727 727 727 728 728 729 729 729 730 730 730 730 730 730 731 732 733 733 733 734 734 734 734 733 732 732 731 730 730 730 730 730
735 734 732 730 729 728 727 726 725 724 723 722 722 721 720 720 720 720 721 721 721 721 720 720 719 719 719 719 719 719 720 720 721 723 724 725 726 726 727 727 728 728 729 730 730 730 730 730 730 731 731 732 732 733 734 734 735 735 735 734 734 733 732 731 731 731 731 731 731
736 735 733 731 730 729 728 727 726 725 724 723 722 722 721 720 720 721 722 722 723 722 722 721 720 719 719 719 719 720 720 721 722 723 724 725 726 726 726 727 727 728 729 730 730 730 730 731 731 731 732 732 733 733 734 735 735 735 735 734 734 733 732 732 731 731 731 731 731
737 735 734 733 731 730 729 728 726 725 725 724 723 722 721 721 721 722 722 723 724 724 723 722 721 720 720 719 720 720 721 722 722 723 724 725 725 726 726 727 728 729 730 730 730 731 731 731 731 732 732 733 733 734 735 735 735 735 735 734 734 733 733 732 732 732 731 731 731
738 736 735 734 732 731 730 729 728 726 725 725 724 723 722 722 722 722 723 724 724 725 724 723 722 721 721 720 721 722 722 723 723 724 724 725 725 726 726 727 728 729 730 730 731 731 731 732 732 732 733 733 734 735 735 735 735 735 735 734 734 733 733 733 732 732 732 732 732
739 738 736 735 734 733 731 730 729 728 727 725 725 724 723 723 723 724 724 725 725 725 725 724 723 723 722 723 723 723 724 724 724 724 724 725 725 726 727 728 729 730 730 731 732 732 732 732 733 733 733 734 735 735 735 736 736 736 735 735 734 733 733 733 733 733 733 733 733
740 739 738 737 735 734 733 731 730 729 728 727 725 725 724 724 724 724 725 725 725 725 725 725 725 724 724 725 725 725 725 725 725 725 725 725 726 727 727 728 729 730 731 732 732 733 733 733 734 734 734 735 735 736 736 736 736 736 735 735 734 734 733 733 733 733 733 733 733
741 740 739 738 737 735 734 733 731 730 729 728 727 726 726 725 725 725 725 726 726 726 726 725 725 725 726 727 727 726 726 725 725 725 725 726 727 727 728 729 730 731 732 732 733 734 734 734 734 735 735 735 736 736 736 736 736 736 735 735 735 734 734 734 733 733 733 733 733
742 741 740 739 738 737 735 734 733 732 730 730 729 728 727 727 727 727 727 727 727 727 727 727 727 727 728 729 728 728 727 726 726 726 726 727 727 728 729 730 731 732 733 733 734 734 735 735 735 735 735 736 736 736 736 736 736 736 736 735 735 735 734 734 734 734 733 733 733
743 742 741 740 739 738 737 736 735 733 732 731 730 729 729 728 728 728 728 728 728 728 728 728 728 729 730 730 730 729 728 728 727 727 727 728 728 729 730 731 732 733 733 734 734 735 735 735 735 736 736 736 736 736 736 736 736 736 735 735 735 735 734 734 734 734 734 734 734
744 743 742 741 740 739 738 737 736 735 734 733 732 731 730 730 730 729 729 730 730 730 730 730 730 730 730 731 730 730 730 729 729 729 729 729 730 730 731 732 733 734 734 735 735 735 735 736 736 736 736 736 736 736 736 736 736 736 735 735 735 735 735 734 734 734 734 734 734
745 744 743 742 741 740 739 738 737 736 735 734 733 732 732 731 731 731 731 731 731 731 732 732 732 731 731 731 731 731 731 730 730 730 731 731 731 732 732 733 734 735 735 735 735 735 736 736 736 736 736 736 736 736 736 736 736 735 735 735 735 735 735 734 734 734 734 734 734
746 745 744 743 742 741 740 739 738 737 736 735 735 734 733 733 732 732 732 733 733 733 733 733 733 733 733 733 732 732 732 732 732 732 732 732 733 733 734 735 735 735 736 736 736 736 736 736 736 736 736 736 736 736 736 736 736 735 735 735 735 735 735 735 734 734 734 734 734
748 747 745 745 744 743 742 740 740 739 738 737 736 735 735 734 734 734 734 734 734 734 734 734 734 734 734 734 733 733 733 733 733 733 733 734 734 735 735 735 736 736 737 737 736 736 736 736 736 736 737 737 736 736 736 736 736 735 735 735 735 735 735 735 735 735 734 734 734
749 748 747 746 745 744 743 742 741 740 739 738 737 737 736 735 735 735 735 735 735 735 735 735 735 735 735 735 735 734 734 734 734 734 735 735 735 735 736 736 737 737 737 737 737 737 737 736 736 736 737 737 737 736 736 736 735 735 735 735 735 735 735 735 735 735 735 735 734
750 749 748 747 746 745 745 744 743 742 741 740 739 738 737 737 736 736 736 736 736 736 736 736 736 736 736 735 735 735 735 735 735 735 735 736 736 736 736 737 737 737 737 737 737 737 737 737 737 737 737 737 737 736 736 736 735 735 735 735 735 735 735 735 735 735 735 735 735
751 750 750 749 748 747 746 745 744 743 742 741 740 740 739 738 737 737 737 737 737 737 737 737 737 737 737 736 736 736 736 736 736 736 736 737 737 737 737 737 737 737 737 737 737 737 737 737 737 737 737 737 737 736 736 736 736 735 735 735 735 735 735 735 735 735 735 735 735
752 751 750 750 749 748 747 746 745 745 744 743 742 741 740 740 739 738 738 738 738 738 738 738 738 738 738 737 737 737 737 737 737 737 737 738 738 738 738 738 738 738 738 737 737 737 737 737 737 737 737 737 737 737 736 736 736 736 736 736 736 735 735 735 735 735 735 735 735
754 753 752 751 750 749 748 747 747 746 745 745 744 743 742 741 741 740 740 739 739 739 739 739 739 739 738 738 738 738 738 738 738 738 739 739 739 739 739 739 739 739 738 738 738 737 737 737 737 737 737 737 737 737 737 737 737 737 737 736 736 736 736 736 736 736 736 736 736
755 754 753 752 751 750 750 749 748 747 747 746 745 745 744 743 742 742 741 741 741 740 740 740 740 739 739 739 739 739 739 739 739 740 740 740 740 740 740 740 739 739 739 738 738 738 737 737 737 736 736 737 737 737 737 737 737 737 737 737 737 736 736 736 736 736 736 736 736